TimeEDT,TemperatureF,Dew PointF,Humidity,Sea Level PressureIn,VisibilityMPH,Wind Direction,Wind SpeedMPH,Gust SpeedMPH,PrecipitationIn,Events,Conditions,WindDirDegrees,DateUTC
12:19 AM,68.0,66.2,94,30.05,1.8,Calm,Calm,-,N/A,,Overcast,0,2013-09-20 04:19:00
12:51 AM,68.0,66.0,93,30.02,0.5,Calm,Calm,-,N/A,Fog,Fog,0,2013-09-20 04:51:00
1:07 AM,68.0,66.2,94,30.04,2.0,Calm,Calm,-,N/A,,Mostly Cloudy,0,2013-09-20 05:07:00
1:19 AM,66.2,66.2,100,30.04,0.8,Calm,Calm,-,N/A,,Mostly Cloudy,0,2013-09-20 05:19:00
1:51 AM,66.9,66.0,97,30.02,0.2,Calm,Calm,-,N/A,Fog,Fog,0,2013-09-20 05:51:00
2:08 AM,66.2,66.2,100,30.04,1.0,Calm,Calm,-,N/A,,Overcast,0,2013-09-20 06:08:00
2:15 AM,68.0,66.2,94,30.04,3.0,Calm,Calm,-,N/A,,Overcast,0,2013-09-20 06:15:00
2:33 AM,68.0,66.2,94,30.04,2.0,Calm,Calm,-,N/A,,Mostly Cloudy,0,2013-09-20 06:33:00
2:51 AM,68.0,66.9,96,30.02,4.0,Calm,Calm,-,N/A,,Mostly Cloudy,0,2013-09-20 06:51:00
3:13 AM,66.2,64.4,94,30.03,1.8,Calm,Calm,-,N/A,,Mostly Cloudy,0,2013-09-20 07:13:00
3:30 AM,66.2,66.2,100,30.03,2.5,Calm,Calm,-,N/A,,Mostly Cloudy,0,2013-09-20 07:30:00
3:41 AM,66.2,66.2,100,30.03,1.5,Calm,Calm,-,N/A,,Mostly Cloudy,0,2013-09-20 07:41:00
3:51 AM,68.0,66.0,93,30.01,2.0,Calm,Calm,-,N/A,,Mostly Cloudy,0,2013-09-20 07:51:00
3:58 AM,68.0,66.2,94,30.03,1.0,Calm,Calm,-,N/A,,Overcast,0,2013-09-20 07:58:00
4:51 AM,68.0,66.0,93,29.99,1.0,SSE,3.5,-,N/A,,Partly Cloudy,160,2013-09-20 08:51:00
4:58 AM,68.0,66.2,94,30.01,2.0,Calm,Calm,-,N/A,,Mostly Cloudy,0,2013-09-20 08:58:00
5:51 AM,68.0,66.0,93,29.99,2.0,South,3.5,-,N/A,,Mostly Cloudy,190,2013-09-20 09:51:00
5:58 AM,69.8,66.2,88,30.01,7.0,South,5.8,-,N/A,,Overcast,190,2013-09-20 09:58:00
6:51 AM,69.1,66.9,93,30.00,7.0,SSW,4.6,-,N/A,,Overcast,200,2013-09-20 10:51:00
7:51 AM,69.1,66.0,90,30.01,5.0,Calm,Calm,-,N/A,,Overcast,0,2013-09-20 11:51:00
8:51 AM,70.0,66.0,87,30.01,7.0,SW,5.8,-,N/A,,Overcast,220,2013-09-20 12:51:00
9:51 AM,72.0,66.9,84,30.01,9.0,SSW,3.5,-,N/A,,Mostly Cloudy,210,2013-09-20 13:51:00
10:51 AM,75.0,66.9,76,30.00,10.0,SSW,4.6,-,N/A,,Mostly Cloudy,200,2013-09-20 14:51:00
11:51 AM,78.1,68.0,71,29.99,10.0,SSW,5.8,-,N/A,,Mostly Cloudy,200,2013-09-20 15:51:00
12:51 PM,82.0,68.0,62,29.96,10.0,Calm,Calm,-,N/A,,Clear,0,2013-09-20 16:51:00
1:51 PM,84.0,66.0,55,29.94,10.0,SSW,9.2,-,N/A,,Partly Cloudy,200,2013-09-20 17:51:00
2:51 PM,84.9,66.0,53,29.91,10.0,SSW,8.1,-,N/A,,Mostly Cloudy,210,2013-09-20 18:51:00
3:51 PM,84.9,66.0,53,29.89,10.0,South,9.2,-,N/A,,Scattered Clouds,180,2013-09-20 19:51:00
4:51 PM,84.0,64.9,53,29.88,10.0,South,6.9,-,N/A,,Clear,190,2013-09-20 20:51:00
5:51 PM,82.9,66.0,56,29.86,10.0,Variable,6.9,-,N/A,,Clear,0,2013-09-20 21:51:00
6:51 PM,79.0,66.0,64,29.86,10.0,Calm,Calm,-,N/A,,Clear,0,2013-09-20 22:51:00
7:51 PM,75.9,66.0,71,29.86,10.0,South,4.6,-,N/A,,Clear,190,2013-09-20 23:51:00
8:51 PM,73.9,66.0,76,29.86,10.0,Calm,Calm,-,N/A,,Clear,0,2013-09-21 00:51:00
9:51 PM,70.0,66.9,90,29.85,8.0,ESE,3.5,-,N/A,,Clear,110,2013-09-21 01:51:00
10:51 PM,70.0,66.9,90,29.84,7.0,Calm,Calm,-,N/A,,Clear,0,2013-09-21 02:51:00
11:51 PM,70.0,66.9,90,29.83,7.0,SSW,3.5,-,N/A,,Clear,210,2013-09-21 03:51:00